FW0690 Weather Reports


time (UTC)temp
C
wind
direction
speed
KPH
gust
KPH
rain 1hr
cm
rain 24hr
cm
rain mn
cm
humidity
%
barometer
mb
20260506134441 32 0.0 0.0 0.00 0.00 0.00 19 1012.0
20260506133841 32 0.0 0.0 0.00 0.00 0.00 19 1012.0
20260506133241 32 0.0 0.0 0.00 0.00 0.00 19 1012.0
20260506132641 32 0.0 0.0 0.00 0.00 0.00 19 1012.0
20260506132041 32 0.0 0.0 0.00 0.00 0.00 19 1012.0
20260506131441 32 0.0 0.0 0.00 0.00 0.00 19 1012.0
20260506130841 31 0.0 0.0 0.00 0.00 0.00 19 1012.0
20260506130241 32 0.0 0.0 0.00 0.00 0.00 19 1012.1
20260506125641 32 0.0 0.0 0.00 0.00 0.00 20 1012.2
20260506125041 32 0.0 0.0 0.00 0.00 0.00 20 1012.2
20260506124441 32 0.0 0.0 0.00 0.00 0.00 20 1012.2
20260506123841 31 0.0 0.0 0.00 0.00 0.00 20 1012.2
20260506123242 31 0.0 0.0 0.00 0.00 0.00 20 1012.3
20260506122641 31 0.0 0.0 0.00 0.00 0.00 20 1012.4
20260506122041 30 0.0 0.0 0.00 0.00 0.00 20 1012.4
20260506121441 32 0.0 0.0 0.00 0.00 0.00 20 1012.5
20260506120841 32 0.0 0.0 0.00 0.00 0.00 20 1012.5
20260506120241 32 0.0 0.0 0.00 0.00 0.00 21 1012.6
20260506115641 31 0.0 0.0 0.00 0.00 0.00 21 1012.6
20260506115041 31 0.0 0.0 0.00 0.00 0.00 21 1012.7
20260506114441 31 0.0 0.0 0.00 0.00 0.00 21 1012.7
20260506113842 30 0.0 0.0 0.00 0.00 0.00 21 1012.8
20260506113242 30 0.0 0.0 0.00 0.00 0.00 21 1012.9
20260506112641 30 0.0 0.0 0.00 0.00 0.00 21 1012.9
20260506112041 30 0.0 0.0 0.00 0.00 0.00 21 1012.9
20260506111441 31 0.0 0.0 0.00 0.00 0.00 22 1012.9
20260506110841 30 0.0 0.0 0.00 0.00 0.00 22 1012.9
20260506110241 30 0.0 0.0 0.00 0.00 0.00 22 1013.0
20260506105641 29 0.0 0.0 0.00 0.00 0.00 23 1013.1
20260506105041 30 0.0 0.0 0.00 0.00 0.00 23 1013.1
20260506104441 29 0.0 0.0 0.00 0.00 0.00 23 1013.1
20260506103841 29 0.0 0.0 0.00 0.00 0.00 23 1013.1
20260506103241 29 0.0 0.0 0.00 0.00 0.00 23 1013.1
20260506102641 29 0.0 0.0 0.00 0.00 0.00 23 1013.1
20260506102041 30 0.0 0.0 0.00 0.00 0.00 23 1013.1
20260506101442 28 0.0 0.0 0.00 0.00 0.00 23 1013.2
20260506100842 29 0.0 0.0 0.00 0.00 0.00 24 1013.2
20260506100241 28 0.0 0.0 0.00 0.00 0.00 24 1013.3
20260506095641 28 0.0 0.0 0.00 0.00 0.00 24 1013.3
20260506095041 27 0.0 0.0 0.00 0.00 0.00 24 1013.3
20260506094441 27 0.0 0.0 0.00 0.00 0.00 24 1013.4
20260506093841 27 0.0 0.0 0.00 0.00 0.00 25 1013.4
20260506093241 26 0.0 0.0 0.00 0.00 0.00 25 1013.5
20260506092641 27 0.0 0.0 0.00 0.00 0.00 26 1013.4
20260506092041 26 0.0 0.0 0.00 0.00 0.00 27 1013.4
20260506091441 25 0.0 0.0 0.00 0.00 0.00 27 1013.5
20260506090841 25 0.0 0.0 0.00 0.00 0.00 27 1013.5
20260506090241 25 0.0 0.0 0.00 0.00 0.00 28 1013.5
20260506085641 25 0.0 0.0 0.00 0.00 0.00 28 1013.5
20260506085041 25 0.0 0.0 0.00 0.00 0.00 29 1013.5
20260506084441 23 0.0 0.0 0.00 0.00 0.00 29 1013.4
20260506083841 23 0.0 0.0 0.00 0.00 0.00 29 1013.5
20260506083241 24 0.0 0.0 0.00 0.00 0.00 31 1013.5
20260506082641 24 0.0 0.0 0.00 0.00 0.00 31 1013.4
20260506082041 23 0.0 0.0 0.00 0.00 0.00 32 1013.4
20260506081441 23 0.0 0.0 0.00 0.00 0.00 33 1013.4
20260506080841 23 0.0 0.0 0.00 0.00 0.00 35 1013.4
20260506080241 22 0.0 0.0 0.00 0.00 0.00 35 1013.4
20260506073241 20 0.0 0.0 0.00 0.00 0.00 39 1013.5
20260506072641 20 0.0 0.0 0.00 0.00 0.00 40 1013.5
20260506072041 20 0.0 0.0 0.00 0.00 0.00 40 1013.4
20260506071441 19 0.0 0.0 0.00 0.00 0.00 41 1013.4
20260506070841 19 0.0 0.0 0.00 0.00 0.00 41 1013.5
20260506070241 18 0.0 0.0 0.00 0.00 0.00 41 1013.5
20260506062041 17 0.0 0.0 0.00 0.00 0.00 47 1013.5
20260506061441 16 0.0 0.0 0.00 0.00 0.00 48 1013.5
20260506060841 16 0.0 0.0 0.00 0.00 0.00 49 1013.5
20260506060241 16 0.0 0.0 0.00 0.00 0.00 49 1013.5
20260506050841 13 0.0 0.0 0.00 0.00 0.00 54 1013.5
20260506050241 13 0.0 0.0 0.00 0.00 0.00 54 1013.5
20260506045041 13 0.0 0.0 0.00 0.00 0.00 55 1013.5
20260506044441 13 0.0 0.0 0.00 0.00 0.00 55 1013.4
20260506043841 12 0.0 0.0 0.00 0.00 0.00 56 1013.3
20260506043241 12 0.0 0.0 0.00 0.00 0.00 56 1013.2
20260506042641 12 0.0 0.0 0.00 0.00 0.00 56 1013.1
20260506042041 12 0.0 0.0 0.00 0.00 0.00 57 1013.1
20260506041441 12 0.0 0.0 0.00 0.00 0.00 57 1013.1
20260506040841 12 0.0 0.0 0.00 0.00 0.00 57 1013.0
20260506040241 11 0.0 0.0 0.00 0.00 0.00 56 1013.0
20260506035641 11 0.0 0.0 0.00 0.00 0.00 56 1013.0
20260506035041 12 0.0 0.0 0.00 0.00 0.00 56 1012.9
20260506034441 11 0.0 0.0 0.00 0.00 0.00 55 1013.0
20260506033841 12 0.0 0.0 0.00 0.00 0.00 55 1012.9
20260506033241 12 0.0 0.0 0.00 0.00 0.00 55 1013.0
20260506032641 11 0.0 0.0 0.00 0.00 0.00 55 1012.9
20260506032041 11 0.0 0.0 0.00 0.00 0.00 55 1012.9
20260506031441 12 0.0 0.0 0.00 0.00 0.00 55 1012.9
20260506030841 12 0.0 0.0 0.00 0.00 0.00 55 1012.8
20260506030241 12 0.0 0.0 0.00 0.00 0.00 54 1012.8
20260506025641 12 0.0 0.0 0.00 0.00 0.00 54 1012.7
20260506025041 12 0.0 0.0 0.00 0.00 0.00 54 1012.6
20260506024441 12 0.0 0.0 0.00 0.00 0.00 54 1012.6
20260506023841 12 0.0 0.0 0.00 0.00 0.00 54 1012.5
20260506023241 12 0.0 0.0 0.00 0.00 0.00 54 1012.5
20260506022640 12 0.0 0.0 0.00 0.00 0.00 54 1012.6
20260506022041 12 0.0 0.0 0.00 0.00 0.00 54 1012.5
20260506021440 12 0.0 0.0 0.00 0.00 0.00 53 1012.4
20260506020841 12 0.0 0.0 0.00 0.00 0.00 53 1012.4
20260506020241 12 0.0 0.0 0.00 0.00 0.00 53 1012.5
20260506015640 12 0.0 0.0 0.00 0.00 0.00 53 1012.5
20260506015040 12 0.0 0.0 0.00 0.00 0.00 53 1012.5
20260506014440 12 0.0 0.0 0.00 0.00 0.00 53 1012.5
20260506013840 13 0.0 0.0 0.00 0.00 0.00 53 1012.5
20260506013240 13 0.0 0.0 0.00 0.00 0.00 53 1012.5
20260506012640 13 0.0 0.0 0.00 0.00 0.00 53 1012.5
20260506012040 13 0.0 0.0 0.00 0.00 0.00 53 1012.5
20260506011440 13 0.0 0.0 0.00 0.00 0.00 52 1012.4
20260506010840 13 0.0 0.0 0.00 0.00 0.00 52 1012.4
20260506010240 13 0.0 0.0 0.00 0.00 0.00 52 1012.4
20260506005640 13 0.0 0.0 0.00 0.00 0.00 52 1012.4
20260506005040 13 0.0 0.0 0.00 0.00 0.00 51 1012.4
20260506004441 13 0.0 0.0 0.00 0.00 0.00 51 1012.4
20260506003840 13 0.0 0.0 0.00 0.00 0.00 50 1012.4
20260506003240 14 0.0 0.0 0.00 0.00 0.00 50 1012.4
20260506002640 14 0.0 0.0 0.00 0.00 0.00 50 1012.3
20260506002040 14 0.0 0.0 0.00 0.00 0.00 49 1012.2
20260506001440 14 0.0 0.0 0.00 0.00 0.00 49 1012.4
20260506000840 15 0.0 0.0 0.00 0.00 0.00 48 1012.3
20260506000240 15 0.0 0.0 0.00 0.00 0.00 47 1012.3
20260505235640 15 0.0 0.0 0.00 0.00 0.00 47 1012.3
20260505235040 15 0.0 0.0 0.00 0.00 0.00 46 1012.2
20260505234440 15 0.0 0.0 0.00 0.00 0.00 46 1012.2
20260505233840 15 0.0 0.0 0.00 0.00 0.00 45 1012.2
20260505233240 16 0.0 0.0 0.00 0.00 0.00 44 1012.2
20260505232640 16 0.0 0.0 0.00 0.00 0.00 44 1012.2
20260505232040 16 0.0 0.0 0.00 0.00 0.00 43 1012.2
20260505231440 16 0.0 0.0 0.00 0.00 0.00 42 1012.2
20260505230840 16 0.0 0.0 0.00 0.00 0.00 41 1012.2
20260505230240 17 0.0 0.0 0.00 0.00 0.00 39 1012.2
20260505225640 17 0.0 0.0 0.00 0.00 0.00 39 1012.2
20260505225040 17 0.0 0.0 0.00 0.00 0.00 39 1012.2
20260505224440 17 0.0 0.0 0.00 0.00 0.00 38 1012.2
20260505223840 17 0.0 0.0 0.00 0.00 0.00 38 1012.2
20260505223240 17 0.0 0.0 0.00 0.00 0.00 38 1012.3
20260505222640 17 0.0 0.0 0.00 0.00 0.00 38 1012.3
20260505222040 17 0.0 0.0 0.00 0.00 0.00 37 1012.3
20260505221440 17 0.0 0.0 0.00 0.00 0.00 37 1012.3
20260505220840 17 0.0 0.0 0.00 0.00 0.00 37 1012.3
20260505220240 17 0.0 0.0 0.00 0.00 0.00 37 1012.3
20260505215640 18 0.0 0.0 0.00 0.00 0.00 37 1012.3
20260505215040 18 0.0 0.0 0.00 0.00 0.00 36 1012.2
20260505214440 18 0.0 0.0 0.00 0.00 0.00 36 1012.2
20260505213840 18 0.0 0.0 0.00 0.00 0.00 36 1012.2
20260505213240 18 0.0 0.0 0.00 0.00 0.00 37 1012.2
20260505212640 18 0.0 0.0 0.00 0.00 0.00 37 1012.2
20260505212040 18 0.0 0.0 0.00 0.00 0.00 37 1012.3
20260505211440 18 0.0 0.0 0.00 0.00 0.00 37 1012.3
20260505210840 18 0.0 0.0 0.00 0.00 0.00 37 1012.3
20260505210240 18 0.0 0.0 0.00 0.00 0.00 37 1012.3
20260505205640 18 0.0 0.0 0.00 0.00 0.00 37 1012.3
20260505205040 18 0.0 0.0 0.00 0.00 0.00 37 1012.3
20260505204440 18 0.0 0.0 0.00 0.00 0.00 37 1012.3
20260505203840 18 0.0 0.0 0.00 0.00 0.00 37 1012.4
20260505203240 18 0.0 0.0 0.00 0.00 0.00 37 1012.3
20260505202640 18 0.0 0.0 0.00 0.00 0.00 37 1012.3
20260505202040 18 0.0 0.0 0.00 0.00 0.00 37 1012.3
20260505201440 19 0.0 0.0 0.00 0.00 0.00 37 1012.2
20260505200840 19 0.0 0.0 0.00 0.00 0.00 37 1012.2
20260505200240 19 0.0 0.0 0.00 0.00 0.00 37 1012.2
20260505195640 19 0.0 0.0 0.00 0.00 0.00 37 1012.2
20260505195040 19 0.0 0.0 0.00 0.00 0.00 36 1012.2
20260505194440 19 0.0 0.0 0.00 0.00 0.00 36 1012.2
20260505193840 19 0.0 0.0 0.00 0.00 0.00 36 1012.2
20260505193240 20 0.0 0.0 0.00 0.00 0.00 36 1012.1
20260505192640 20 0.0 0.0 0.00 0.00 0.00 36 1012.1
20260505192040 20 0.0 0.0 0.00 0.00 0.00 36 1012.1
20260505191440 20 0.0 0.0 0.00 0.00 0.00 36 1012.1
20260505190840 20 0.0 0.0 0.00 0.00 0.00 36 1012.1
20260505190240 20 0.0 0.0 0.00 0.00 0.00 36 1012.0
20260505185640 20 0.0 0.0 0.00 0.00 0.00 36 1012.1
20260505185040 20 0.0 0.0 0.00 0.00 0.00 36 1012.1
20260505184440 20 0.0 0.0 0.00 0.00 0.00 36 1012.1
20260505183840 20 0.0 0.0 0.00 0.00 0.00 36 1012.1
20260505183240 20 0.0 0.0 0.00 0.00 0.00 36 1012.0
20260505182640 20 0.0 0.0 0.00 0.00 0.00 36 1012.0
20260505182040 21 0.0 0.0 0.00 0.00 0.00 36 1012.0
20260505181440 21 0.0 0.0 0.00 0.00 0.00 36 1011.9
20260505180840 21 0.0 0.0 0.00 0.00 0.00 35 1011.8
20260505180240 21 0.0 0.0 0.00 0.00 0.00 35 1011.8
20260505175640 21 0.0 0.0 0.00 0.00 0.00 35 1011.8
20260505175040 21 0.0 0.0 0.00 0.00 0.00 35 1011.7
20260505174440 21 0.0 0.0 0.00 0.00 0.00 35 1011.7
20260505173840 21 0.0 0.0 0.00 0.00 0.00 35 1011.7
20260505173240 22 0.0 0.0 0.00 0.00 0.00 34 1011.7
20260505172640 22 0.0 0.0 0.00 0.00 0.00 34 1011.6
20260505172040 22 0.0 0.0 0.00 0.00 0.00 33 1011.7
20260505171440 22 0.0 0.0 0.00 0.00 0.00 33 1011.7
20260505170840 22 0.0 0.0 0.00 0.00 0.00 33 1011.6
20260505170240 22 0.0 0.0 0.00 0.00 0.00 32 1011.6
20260505165640 23 0.0 0.0 0.00 0.00 0.00 32 1011.6
20260505165040 23 0.0 0.0 0.00 0.00 0.00 32 1011.6
20260505164440 23 0.0 0.0 0.00 0.00 0.00 32 1011.6
20260505163840 23 0.0 0.0 0.00 0.00 0.00 31 1011.6
20260505163240 23 0.0 0.0 0.00 0.00 0.00 31 1011.5
20260505162640 23 0.0 0.0 0.00 0.00 0.00 31 1011.5
20260505162040 23 0.0 0.0 0.00 0.00 0.00 31 1011.5
20260505161440 23 0.0 0.0 0.00 0.00 0.00 30 1011.5
20260505160840 23 0.0 0.0 0.00 0.00 0.00 30 1011.5
20260505160240 23 0.0 0.0 0.00 0.00 0.00 30 1011.5
20260505153240 25 0.0 0.0 0.00 0.00 0.00 28 1011.7
20260505152640 25 0.0 0.0 0.00 0.00 0.00 28 1011.7
20260505152040 25 0.0 0.0 0.00 0.00 0.00 27 1011.8
20260505151440 25 0.0 0.0 0.00 0.00 0.00 27 1011.8
20260505150840 25 0.0 0.0 0.00 0.00 0.00 26 1011.9
20260505150240 25 0.0 0.0 0.00 0.00 0.00 25 1012.0
20260505140240 30 0.0 0.0 0.00 0.00 0.00 22 1011.9